Location: Clifton Park
(41.4873°N, 81.8024°W)
Time: 09:45:08
(UTC+00:00)

STARLINK-58 - Pass Details

Date: 21 January 2020
Orbit: 449 x 450 km, 53.0° (Epoch: 19 February)

Event Time Altitude Azimuth Distance (km) Brightness Sun altitude
Exits shadow 10:17:18 24° 104° (ESE) 968 5.5 -28.0°
Drops below altitude 10° 10:19:25 10° 73° (ENE) 1,574 6.8 -27.6°
Enters shadow 11:19:37 -62° 235° (SW) 11,730 10.3 -16.5°
Maximum altitude 11:53:35 38° 330° (NNW) 701 3.8 -10.3°
